User: anonymous   Login
Location: Walnut Point State Park
(39.6958°N, 88.0345°W)
Time: 15:16:14
(UTC-05:00)
Language:

ATLAS 3B R/B - Orbit

View from above orbital plane
View from above orbital plane
View from above satellite
View from above satellite

Ground track
Ground track

The orbit data is extracted from the following two-line orbital elements,

1 28538U 05004B   16150.92960245 0.00000000  00000-0  00000-0 0    08
2 28538  63.8228 182.8522 0171000 204.1427 155.8573 13.43083226    00
Epoch (UTC): 29 May 2016 22:18:37
Eccentricity: 0.0171000
inclination: 63.8228°
perigee height: 970 km
apogee height: 1225 km
right ascension of ascending node: 182.8522°
argument of perigee: 204.1427°
revolutions per day: 13.43083226
mean anomaly at epoch: 155.8573°
orbit number at epoch: 0

The dashed part of the orbit path shows where the satellite is in the earth's shadow,  

DLR